Regional Weather Roundup
Issued by NWS

Home | Current Version | Previous Version | Text Only | Print | Product List | Glossary On
Versions: 1 2 3 4 5 6 7 8 9 10 11 12 13 14 15 16 17 18 19 20 21 22 23 24 25 26 27 28 29 30 31 32 33 34 35 36 37 38 39 40 41 42 43 44 45 46 47 48 49 50
000
ASUS43 KBIS 230110
RWRND

NORTH DAKOTA REGIONAL WEATHER ROUNDUP
NATIONAL WEATHER SERVICE BISMARCK ND
800 PM CDT MON SEP 22 2014

NOTE: "FAIR" INDICATES FEW OR NO CLOUDS BELOW 12,000 FEET WITH NO
SIGNIFICANT WEATHER AND/OR OBSTRUCTIONS TO VISIBILITY.


NDZ001>003-009>011-017-230200-
NORTHWEST NORTH DAKOTA

CITY           SKY/WX    TMP DP  RH WIND       PRES   REMARKS
WILLISTON      CLEAR     76  48  37 SE6       29.86F
MINOT          CLEAR     66  47  50 E8        29.92R
MINOT AFB      CLEAR     65  49  57 SE6       29.91S
$$

NDZ018>021-031>035-040>046-230200-
SOUTHWEST NORTH DAKOTA

CITY           SKY/WX    TMP DP  RH WIND       PRES   REMARKS
BISMARCK       PTCLDY    66  48  52 E10       29.95S
DICKINSON      MOCLDY    65  51  60 SE10      29.90S
GARRISON         N/A     68  52  56 SE6       29.93S
HETTINGER ARPT PTCLDY    69  50  50 E12       29.91F
$$

NDZ004>008-012>016-024-026-027-054-230200-
NORTHEAST NORTH DAKOTA

CITY           SKY/WX    TMP DP  RH WIND       PRES   REMARKS
GRAND FORKS    CLEAR     65  49  56 SE7       30.01S
GRND FRKS AFB  CLEAR     62  48  58 SE7       30.02S
DEVILS LAKE    CLEAR     64  50  59 SE9       29.98S
$$

NDZ022-023-025-028>030-036>039-047>053-230200-
SOUTHEAST NORTH DAKOTA

CITY           SKY/WX    TMP DP  RH WIND       PRES   REMARKS
FARGO          CLEAR     69  47  45 S7        30.04S
JAMESTOWN      CLEAR     65  48  54 SE9       30.01S
$$




USA.gov is the U.S. government's official web portal to all federal, state and local government web resources and services.